[[{"header":{"parameterUnit":"m.s-1","parameterCategory":2,"la1":30.2991,"la2":30.254,"lo1":-89.0895,"lo2":-89.0444,"dy":0.0017,"dx":0.0017,"nx":28,"ny":28,"refTime":"2024-03-16T21:00:00:Z","depth":"0","parameterNumber":2,"parameterNumberName":"U-component_of_CURRENTS"},"data":[0,0,0,0,0,0,0,0,0,0,0,0,0,0,0,0,0,0,0,0,0,0,0,0,0,0,0,0,0,0,0,0,0,0,0,0,0,0,0,0,0,0,0,0,0,0,0,0,0,0,0,0,0,0,0,0,0,0,0.3256,0.3256,0,0.3248,0.3247,0.3247,0.3192,0.3191,0.319,0.319,0.3116,0.3114,0.3113,0,0,0,0,0,0,0,0,0,0,0,0,0,0.3323,0.332,0.3256,0.3256,0.3257,0.3248,0.3247,0.3246,0.3192,0.3191,0.319,0.3189,0.3116,0.3114,0.3113,0,0,0,0,0,0,0,0,0,0,0,0,0,0.3295,0.332,0.3256,0.3234,0.3233,0.3248,0.3247,0.3246,0.3192,0.3191,0.319,0.3189,0.3116,0.3115,0.3112,0.312,0,0,0.3106,0.3105,0,0,0,0,0,0,0,0,0.3296,0.3291,0.3237,0.3236,0.3234,0.3226,0.3244,0.3203,0.3192,0.3199,0.319,0.3188,0.3152,0.3147,0.3138,0.3116,0.3113,0.3106,0.3105,0.3104,0.3103,0,0,0,0,0,0,0,0.3298,0.3292,0.3245,0.3238,0.3236,0.326,0.3253,0.3236,0.3174,0.3199,0.3197,0.3208,0.315,0.314,0.3136,0.3112,0.3106,0.3104,0.3103,0.3102,0.3146,0.3149,0,0,0,0,0,0,0.331,0.3293,0.3245,0.3246,0.3272,0.3259,0.3251,0.3224,0.3176,0.317,0.3209,0.3206,0.3144,0.3138,0.3133,0.3181,0.3104,0.3102,0.3101,0.3144,0.3147,0.315,0,0,0,0,0,0,0.331,0.3304,0.3246,0.3278,0.3273,0.3259,0.3229,0.3224,0.323,0.3186,0.3177,0.3222,0.3143,0.3136,0.3132,0.3176,0.3101,0.3099,0.3141,0.3145,0.3148,0.325,0,0,0,0,0,0,0.3311,0.3303,0.3293,0.3277,0.3272,0.3279,0.3231,0.3225,0.3242,0.3237,0.3195,0.3185,0.3142,0.3135,0.313,0.3172,0.3098,0.3138,0.3143,0.3147,0.3244,0.3257,0.3268,0,0,0,0,0,0.3313,0.3302,0.3291,0.3287,0.3254,0.3281,0.3281,0.3264,0.3244,0.3261,0.3224,0.3188,0.3161,0.3135,0.3128,0.3171,0.3136,0.3142,0.3147,0.3239,0.3255,0.3268,0,0,0,0,0,0,0.3323,0.3296,0.3283,0.3261,0.3285,0.3275,0.3284,0.3283,0.3268,0.3254,0.3206,0.3195,0.3219,0.3183,0.3156,0.3201,0.3148,0.3153,0.3221,0.3235,0.3247,0.3252,0.3096,0,0,0,0,0,0.3324,0.3313,0.3305,0.3303,0.3302,0.33,0.3309,0.3305,0.3294,0.3286,0.3261,0.3236,0.3236,0.3224,0.3216,0.3226,0.3216,0.3256,0.3268,0.3278,0.328,0.3311,0.3326,0.3167,0.3167,0.3167,0,0,0.334,0.3321,0.332,0.3308,0.3307,0.3318,0.33,0.3323,0.334,0.328,0.3286,0.3283,0.3253,0.3272,0.3279,0.3242,0.3323,0.3285,0.3294,0.329,0.3318,0.3333,0.3347,0.3171,0.317,0.317,0,0,0.3367,0.3335,0.3332,0.3343,0.3355,0.3353,0.3369,0.3371,0.3374,0.3391,0.3364,0.3389,0.3365,0.3366,0.3359,0.3436,0.3397,0.3439,0.3486,0.3517,0.353,0.3541,0.3564,0.3577,0.343,0.3431,0.3431,0,0.3369,0.3359,0.335,0.335,0.3356,0.3371,0.338,0.3397,0.3409,0.3419,0.3404,0.3425,0.3413,0.3446,0.3476,0.3465,0.3465,0.3429,0.3532,0.3543,0.3552,0.3573,0.3586,0.3436,0.3436,0.3435,0.3434,0,0.3395,0.3388,0.3392,0.3381,0.3399,0.3415,0.3431,0.3459,0.3467,0.3483,0.3532,0.3531,0.3536,0.356,0.3536,0.3609,0.3584,0.3555,0.3492,0.3574,0.3592,0.3603,0.3444,0.3442,0.3441,0.3439,0,0,0.3341,0.3393,0.3383,0.3395,0.3406,0.3422,0.3459,0.3493,0.3517,0.3558,0.3594,0.3639,0.3649,0.3646,0.3645,0.3681,0.3769,0.3647,0.3646,0.3665,0.3832,0.3716,0.3716,0.3751,0.3753,0.3755,0.3822,0,0.3341,0.337,0.3382,0.3412,0.3423,0.3443,0.3474,0.3517,0.355,0.3595,0.364,0.3676,0.3678,0.3691,0.3735,0.3762,0.3799,0.3753,0.3753,0.3754,0.3635,0.3725,0.3494,0.3526,0.3833,0.3834,0.3836,0,0.3322,0.3348,0.338,0.3426,0.3424,0.3444,0.3483,0.3517,0.359,0.3616,0.3673,0.3705,0.3787,0.3767,0.386,0.3825,0.384,0.3859,0.3861,0.3719,0.3657,0.349,0.3533,0.3426,0.3852,0.385,0.3849,0,0.3288,0.3327,0.3359,0.337,0.3428,0.344,0.3463,0.3522,0.3548,0.3636,0.3665,0.3757,0.3798,0.3853,0.3912,0.3884,0.4004,0.3959,0.3871,0.3863,0.3648,0.3616,0.3575,0.4021,0.4021,0.402,0.402,0,0.326,0.3269,0.335,0.3362,0.3382,0.3425,0.3449,0.3487,0.355,0.3592,0.367,0.3724,0.3821,0.3899,0.3938,0.3947,0.4024,0.3897,0.3878,0.3678,0.365,0.3528,0.3505,0.4023,0.4022,0.4022,0.4021,0,0.32,0.3258,0.3287,0.3355,0.3369,0.3377,0.3418,0.345,0.3508,0.3567,0.3598,0.3713,0.3814,0.3905,0.4005,0.3955,0.3865,0.3975,0.3735,0.3684,0.3437,0.3427,0.3283,0.3201,0.3861,0.3858,0.3856,0,0.3175,0.3196,0.3264,0.3277,0.3297,0.3325,0.3349,0.3415,0.345,0.3561,0.3591,0.371,0.3792,0.3887,0.3847,0.3876,0.3803,0.3636,0.353,0.3405,0.3382,0.3298,0.3236,0.3303,0.3297,0.3292,0.3288,0,0.3122,0.3148,0.318,0.3214,0.3239,0.3266,0.3308,0.333,0.3422,0.3462,0.3555,0.3634,0.3708,0.3622,0.3624,0.3603,0.3416,0.3524,0.3455,0.2995,0.284,0.2755,0.3294,0.3241,0.3246,0.3249,0.3251,0.3253,0.3067,0.3081,0.3137,0.3133,0.317,0.3198,0.3177,0.3233,0.3262,0.3276,0.3444,0.345,0.3381,0.3339,0.3312,0.3018,0.3118,0.2854,0.2875,0.282,0.2658,0.3093,0.2974,0.2977,0.298,0.2982,0.2984,0,0.3004,0.3038,0.3055,0.3064,0.3043,0.31,0.3135,0.3085,0.3064,0.3119,0.3153,0.3026,0.2885,0.2808,0.2523,0.2379,0.2294,0.2305,0.2137,0.2129,0.2551,0.244,0.2122,0.2123,0.2123,0.2123,0.2123,0.2123,0.299,0.2987,0.299,0.2928,0.2925,0.2867,0.2861,0.2805,0.2801,0.2658,0.2546,0.255,0.2457,0.2217,0.1967,0.1914,0.1812,0.168,0.1796,0.2084,0.2137,0.2187,0.2076,0.1687,0.1687,0.1225,0.1221,0.1218]},{"header":{"parameterUnit":"m.s-1","parameterCategory":2,"la1":30.2991,"la2":30.254,"lo1":-89.0895,"lo2":-89.0444,"dy":0.0017,"dx":0.0017,"nx":28,"ny":28,"refTime":"2024-03-16T21:00:00:Z","depth":"0","parameterNumber":3,"parameterNumberName":"V-component_of_CURRENTS"},"data":[0,0,0,0,0,0,0,0,0,0,0,0,0,0,0,0,0,0,0,0,0,0,0,0,0,0,0,0,0,0,0,0,0,0,0,0,0,0,0,0,0,0,0,0,0,0,0,0,0,0,0,0,0,0,0,0,0,0,-0.0245,-0.0244,0,-0.0229,-0.0229,-0.0229,-0.0211,-0.0211,-0.0211,-0.0211,-0.0213,-0.0214,-0.0214,0,0,0,0,0,0,0,0,0,0,0,0,0,-0.029,-0.0289,-0.0245,-0.0244,-0.0244,-0.0229,-0.0229,-0.0229,-0.0212,-0.0211,-0.0211,-0.0211,-0.0213,-0.0214,-0.0214,0,0,0,0,0,0,0,0,0,0,0,0,0,-0.0271,-0.0288,-0.0245,-0.0235,-0.0234,-0.0229,-0.0229,-0.0229,-0.0212,-0.0211,-0.0211,-0.0211,-0.0213,-0.0214,-0.0214,-0.022,0,0,-0.0215,-0.0215,0,0,0,0,0,0,0,0,-0.0272,-0.0269,-0.0236,-0.0236,-0.0234,-0.0223,-0.0246,-0.0227,-0.0212,-0.0219,-0.0211,-0.0211,-0.0219,-0.0219,-0.0215,-0.022,-0.022,-0.0215,-0.0215,-0.0215,-0.0215,0,0,0,0,0,0,0,-0.0273,-0.027,-0.0237,-0.0236,-0.0235,-0.0242,-0.0239,-0.0242,-0.022,-0.0218,-0.0217,-0.0217,-0.0219,-0.0214,-0.0215,-0.0221,-0.0215,-0.0215,-0.0215,-0.0215,-0.0224,-0.0224,0,0,0,0,0,0,-0.0276,-0.0271,-0.0238,-0.0237,-0.0254,-0.0241,-0.0238,-0.0226,-0.0219,-0.0218,-0.0218,-0.0217,-0.0214,-0.0214,-0.0215,-0.0216,-0.0215,-0.0215,-0.0216,-0.0224,-0.0224,-0.0224,0,0,0,0,0,0,-0.0277,-0.0272,-0.0238,-0.0255,-0.0252,-0.0241,-0.0228,-0.0226,-0.0223,-0.0219,-0.0218,-0.0217,-0.0214,-0.0214,-0.021,-0.0217,-0.0216,-0.0216,-0.0223,-0.0224,-0.0224,-0.0223,0,0,0,0,0,0,-0.0278,-0.0273,-0.027,-0.0255,-0.0251,-0.0236,-0.0228,-0.0226,-0.0224,-0.0222,-0.0218,-0.0218,-0.0214,-0.0209,-0.021,-0.0217,-0.0216,-0.0223,-0.0223,-0.0224,-0.0223,-0.0223,-0.0223,0,0,0,0,0,-0.0279,-0.0276,-0.027,-0.0266,-0.0245,-0.0236,-0.0235,-0.0226,-0.0224,-0.0222,-0.0213,-0.0218,-0.021,-0.0209,-0.021,-0.0217,-0.0223,-0.0223,-0.0224,-0.0223,-0.0223,-0.0223,0,0,0,0,0,0,-0.0301,-0.0273,-0.0266,-0.0256,-0.0248,-0.0234,-0.0234,-0.0229,-0.0221,-0.0219,-0.0215,-0.0214,-0.0215,-0.0215,-0.0214,-0.022,-0.022,-0.022,-0.0219,-0.0219,-0.0219,-0.0218,-0.0216,0,0,0,0,0,-0.0303,-0.0292,-0.0271,-0.0268,-0.0259,-0.0247,-0.0245,-0.0237,-0.0227,-0.0224,-0.022,-0.0217,-0.0216,-0.0216,-0.0215,-0.0217,-0.0208,-0.0224,-0.0224,-0.0224,-0.0224,-0.0225,-0.0226,-0.0224,-0.0224,-0.0224,0,0,-0.0318,-0.0299,-0.0297,-0.0272,-0.0263,-0.0245,-0.0245,-0.0238,-0.023,-0.0226,-0.0217,-0.0218,-0.0217,-0.0216,-0.0217,-0.0216,-0.0213,-0.0224,-0.0224,-0.0224,-0.0225,-0.0226,-0.0226,-0.0224,-0.0224,-0.0224,0,0,-0.0328,-0.0315,-0.0301,-0.0288,-0.0268,-0.0256,-0.0254,-0.0236,-0.0233,-0.0224,-0.0221,-0.0225,-0.022,-0.0222,-0.0222,-0.0224,-0.0215,-0.0226,-0.0225,-0.0226,-0.0226,-0.0226,-0.0187,-0.0184,-0.0225,-0.0225,-0.0225,0,-0.0336,-0.0316,-0.0301,-0.0278,-0.0266,-0.0257,-0.0237,-0.0235,-0.0222,-0.022,-0.0221,-0.0219,-0.0224,-0.0224,-0.0224,-0.0226,-0.0208,-0.0224,-0.0226,-0.0226,-0.0226,-0.0187,-0.0183,-0.0225,-0.0225,-0.0225,-0.0225,0,-0.0326,-0.0313,-0.0305,-0.0266,-0.0253,-0.024,-0.0223,-0.0218,-0.0214,-0.0212,-0.0215,-0.022,-0.0218,-0.0226,-0.0225,-0.0231,-0.021,-0.0227,-0.0226,-0.0226,-0.0184,-0.0181,-0.0225,-0.0225,-0.0225,-0.0225,0,0,-0.0312,-0.0297,-0.0289,-0.0275,-0.0242,-0.0226,-0.0215,-0.0197,-0.0187,-0.0196,-0.0188,-0.0205,-0.0213,-0.0214,-0.0222,-0.0228,-0.0211,-0.0226,-0.0226,-0.0186,-0.0179,-0.014,-0.0131,-0.0228,-0.0228,-0.0228,-0.0139,0,-0.0296,-0.0268,-0.0257,-0.0229,-0.0209,-0.0196,-0.0179,-0.0169,-0.0168,-0.0161,-0.0186,-0.0181,-0.0207,-0.0201,-0.0218,-0.0215,-0.0206,-0.0232,-0.0185,-0.0183,-0.0149,-0.0128,-0.01,-0.0016,-0.0135,-0.0134,-0.0134,0,-0.0268,-0.0253,-0.0227,-0.0203,-0.0189,-0.0171,-0.0136,-0.0122,-0.0121,-0.0119,-0.0134,-0.0147,-0.016,-0.0183,-0.0182,-0.0194,-0.0184,-0.0183,-0.018,-0.0145,-0.0139,-0.0041,-0.0005,-0.009,-0.0128,-0.0128,-0.0129,0,-0.0253,-0.0225,-0.0207,-0.0196,-0.0166,-0.015,-0.0129,-0.0112,-0.0087,-0.0092,-0.007,-0.0106,-0.0093,-0.0119,-0.0119,-0.0147,-0.0102,-0.0141,-0.0089,-0.0085,-0.0052,-0.0045,-0.0095,-0.0132,-0.0132,-0.0132,-0.0133,0,-0.0228,-0.0207,-0.0201,-0.0187,-0.0146,-0.0133,-0.0092,-0.0075,-0.0049,0.0003,-0.0046,-0.0005,-0.0077,-0.0063,-0.009,-0.006,-0.0074,-0.0076,-0.0064,-0.0047,-0.0041,-0.0107,-0.0172,-0.0129,-0.013,-0.013,-0.0131,0,-0.02,-0.0204,-0.0174,-0.0151,-0.0139,-0.0104,-0.0052,-0.0017,0.0002,0.007,0.0079,0.0083,0.0121,0.0074,0.0064,0.0011,-0.0017,0.0031,0.0077,0.0092,0.0029,-0.0036,-0.0049,-0.008,0.0087,0.0088,0.0089,0,-0.0183,-0.0171,-0.0141,-0.0108,-0.0092,-0.005,-0.0009,0.0011,0.0064,0.0148,0.02,0.0241,0.032,0.0313,0.0234,0.0213,0.01,0.0181,0.011,0.0041,-0.0023,-0.0073,-0.0103,0.0172,0.0174,0.0175,0.0176,0,-0.014,-0.0133,-0.0102,-0.0043,-0.0001,0.005,0.0109,0.0156,0.0216,0.0304,0.044,0.0507,0.0511,0.0508,0.0438,0.0383,0.0113,0.021,0.0113,0.0021,-0.0011,-0.0039,0.012,0.0189,0.0188,0.0187,0.0186,0.0186,-0.0093,-0.0066,-0.0028,0.0044,0.0099,0.0176,0.0237,0.0329,0.0453,0.0637,0.0652,0.0843,0.0734,0.0662,0.0534,0.0295,0.0266,0.0202,0.0132,0.0091,0.004,0.0248,0.0334,0.0334,0.0333,0.0333,0.0333,0,-0.0025,-0.0,0.0061,0.0147,0.0242,0.024,0.0347,0.0441,0.0633,0.0843,0.1004,0.1122,0.0978,0.0763,0.0423,0.0235,0.0135,0.0115,0.0023,-0.0004,0.0171,0.015,0.0231,0.0231,0.0231,0.0231,0.0231,0.0231,0.0006,0.007,0.0098,0.0264,0.0336,0.0451,0.052,0.068,0.0856,0.1167,0.1364,0.1466,0.1293,0.0625,0.0183,0.0068,-0.0097,-0.0096,-0.0187,-0.0107,-0.0106,-0.0105,-0.014,-0.0122,-0.0123,-0.033,-0.0332,-0.0334]}],[{"header":{"parameterUnit":"m.s-1","parameterCategory":2,"la1":30.2991,"la2":30.254,"lo1":-89.0895,"lo2":-89.0444,"dy":0.0017,"dx":0.0017,"nx":28,"ny":28,"refTime":"2024-03-16T21:00:00:Z","depth":"2","parameterNumber":2,"parameterNumberName":"U-component_of_CURRENTS"},"data":[0,0,0,0,0,0,0,0,0,0,0,0,0,0,0,0,0,0,0,0,0,0,0,0,0,0,0,0,0,0,0,0,0,0,0,0,0,0,0,0,0,0,0,0,0,0,0,0,0,0,0,0,0,0,0,0,0,0,0.1879,0.1879,0,0.1849,0.1848,0.1848,0.1844,0.1845,0.1845,0.1846,0.1887,0.1888,0.1888,0,0,0,0,0,0,0,0,0,0,0,0,0,0.1891,0.1891,0.1879,0.1879,0.1879,0.1849,0.1848,0.1848,0.1844,0.1845,0.1845,0.1846,0.1887,0.1888,0.1888,0,0,0,0,0,0,0,0,0,0,0,0,0,0.1874,0.1891,0.1879,0.1875,0.1874,0.1849,0.1848,0.1847,0.1844,0.1845,0.1845,0.1846,0.1887,0.1887,0.1888,0.188,0,0,0.1891,0.1892,0,0,0,0,0,0,0,0,0.1875,0.1873,0.1876,0.1875,0.1875,0.1853,0.1867,0.1863,0.1844,0.1854,0.1846,0.1846,0.1883,0.1884,0.1873,0.1882,0.1884,0.1892,0.1892,0.1893,0.1893,0,0,0,0,0,0,0,0.1876,0.1874,0.1865,0.1876,0.1875,0.186,0.1858,0.1866,0.1864,0.1853,0.1853,0.1852,0.1883,0.1872,0.1874,0.1884,0.1891,0.1892,0.1893,0.1893,0.1937,0.1938,0,0,0,0,0,0,0.1885,0.1876,0.1866,0.1865,0.1879,0.1859,0.1857,0.1857,0.1863,0.1864,0.1852,0.1852,0.187,0.1873,0.1876,0.1932,0.1893,0.1893,0.1894,0.1937,0.1938,0.1938,0,0,0,0,0,0,0.1886,0.1885,0.1868,0.1871,0.1868,0.1859,0.1858,0.1857,0.1871,0.1862,0.1864,0.1871,0.1871,0.1875,0.1904,0.1931,0.1894,0.1895,0.1936,0.1937,0.1938,0.2002,0,0,0,0,0,0,0.1886,0.1885,0.1886,0.1872,0.1868,0.1874,0.1858,0.1855,0.1869,0.187,0.1879,0.1882,0.1872,0.1902,0.1905,0.1932,0.1896,0.1935,0.1937,0.1938,0.1999,0.2005,0.201,0,0,0,0,0,0.1887,0.1879,0.1886,0.1885,0.1871,0.1875,0.1873,0.1866,0.187,0.1881,0.1887,0.1883,0.1911,0.1904,0.1907,0.1934,0.1935,0.1936,0.1938,0.1996,0.2004,0.201,0,0,0,0,0,0,0.1861,0.1878,0.1885,0.1877,0.1891,0.1876,0.1878,0.1883,0.1893,0.1895,0.1894,0.1898,0.1936,0.1922,0.1914,0.1947,0.1921,0.1923,0.1965,0.1971,0.1976,0.1976,0.1896,0,0,0,0,0,0.1863,0.1888,0.1886,0.1891,0.1894,0.1895,0.1896,0.1896,0.1901,0.1906,0.1912,0.1917,0.1937,0.1945,0.1953,0.1972,0.1978,0.1988,0.1993,0.1998,0.1998,0.203,0.2039,0.1943,0.1943,0.1942,0,0,0.1854,0.1872,0.1881,0.1893,0.1898,0.1902,0.1898,0.1906,0.1919,0.191,0.1932,0.1944,0.1948,0.1972,0.1986,0.1967,0.2033,0.2,0.2004,0.2002,0.2032,0.2042,0.205,0.1943,0.1943,0.1943,0,0,0.1853,0.1867,0.1883,0.19,0.1919,0.1917,0.1931,0.1929,0.1941,0.1966,0.1965,0.1993,0.2011,0.2015,0.2023,0.2061,0.2067,0.2066,0.2089,0.2121,0.2129,0.2137,0.2178,0.2189,0.2061,0.2061,0.2061,0,0.185,0.186,0.1887,0.1904,0.1913,0.1932,0.1935,0.1951,0.1963,0.1973,0.1984,0.202,0.2031,0.2062,0.2078,0.2076,0.2098,0.2069,0.213,0.2137,0.2144,0.2184,0.2195,0.2064,0.2064,0.2063,0.2063,0,0.185,0.1867,0.1878,0.1916,0.1927,0.194,0.1959,0.1979,0.2001,0.201,0.2057,0.2073,0.2092,0.2107,0.2111,0.2159,0.2164,0.2143,0.2118,0.2158,0.2197,0.2208,0.2069,0.2068,0.2067,0.2066,0,0,0.1839,0.1873,0.1884,0.19,0.1934,0.1944,0.1973,0.1996,0.2026,0.2052,0.2089,0.2131,0.2144,0.2152,0.2163,0.2193,0.2274,0.2194,0.2194,0.2243,0.2363,0.2276,0.2279,0.2272,0.2274,0.2275,0.238,0,0.184,0.1861,0.1882,0.1911,0.1913,0.1948,0.1978,0.2007,0.2045,0.2087,0.2117,0.2166,0.2161,0.2194,0.222,0.2265,0.2301,0.2249,0.2309,0.2311,0.2235,0.2287,0.2081,0.2149,0.239,0.2392,0.2393,0,0.1829,0.1851,0.1858,0.1907,0.1913,0.1939,0.1991,0.2021,0.2081,0.2114,0.2156,0.2194,0.2253,0.2246,0.2332,0.2304,0.234,0.2369,0.2373,0.2272,0.2242,0.2142,0.2158,0.241,0.2408,0.2407,0.2406,0,0.1795,0.1839,0.1844,0.1861,0.1908,0.1934,0.1969,0.2025,0.2063,0.2143,0.2188,0.2245,0.2296,0.2346,0.2402,0.2387,0.2492,0.2471,0.2426,0.2421,0.2244,0.2219,0.2532,0.2532,0.2532,0.2532,0.2531,0,0.1781,0.1795,0.1837,0.1849,0.1879,0.192,0.1978,0.2016,0.2089,0.2133,0.2204,0.2254,0.2328,0.239,0.2429,0.2456,0.2512,0.2443,0.2441,0.226,0.2237,0.2449,0.2438,0.2536,0.2535,0.2534,0.2533,0,0.1735,0.1761,0.1777,0.1835,0.1859,0.1881,0.1981,0.2018,0.2099,0.2163,0.2197,0.2285,0.2365,0.2426,0.2515,0.2485,0.2527,0.252,0.2308,0.2277,0.2436,0.2428,0.2494,0.2492,0.249,0.2488,0.2487,0,0.1704,0.1707,0.176,0.1776,0.1808,0.1868,0.1904,0.2,0.2034,0.217,0.2177,0.2297,0.233,0.2418,0.2409,0.245,0.2513,0.2271,0.2187,0.2441,0.2433,0.2427,0.242,0.1999,0.1994,0.199,0.1986,0,0.1658,0.1679,0.1699,0.1733,0.1772,0.1811,0.1872,0.1908,0.2012,0.2059,0.2115,0.2167,0.225,0.2173,0.2219,0.2213,0.2243,0.2184,0.2514,0.2025,0.1977,0.1969,0.1978,0.1948,0.1952,0.1955,0.1957,0.1958,0.1622,0.1626,0.1661,0.1688,0.1719,0.1733,0.1745,0.18,0.1835,0.1875,0.1975,0.1971,0.2002,0.1953,0.191,0.1887,0.205,0.1954,0.1966,0.1983,0.1891,0.1841,0.1771,0.1774,0.1776,0.1778,0.178,0,0.159,0.1599,0.1617,0.163,0.1615,0.1668,0.1692,0.1667,0.1655,0.171,0.1725,0.1594,0.155,0.1607,0.1505,0.1507,0.1486,0.1448,0.1402,0.1441,0.1475,0.1355,0.1095,0.1093,0.1091,0.1089,0,0,0.1568,0.1563,0.1571,0.1524,0.1527,0.1483,0.1476,0.1428,0.1428,0.1386,0.1362,0.147,0.154,0.129,0.1262,0.1158,0.1288,0.111,0.166,0.1643,0.1675,0.177,0.163,0,0,0,0,0]},{"header":{"parameterUnit":"m.s-1","parameterCategory":2,"la1":30.2991,"la2":30.254,"lo1":-89.0895,"lo2":-89.0444,"dy":0.0017,"dx":0.0017,"nx":28,"ny":28,"refTime":"2024-03-16T21:00:00:Z","depth":"2","parameterNumber":3,"parameterNumberName":"V-component_of_CURRENTS"},"data":[0,0,0,0,0,0,0,0,0,0,0,0,0,0,0,0,0,0,0,0,0,0,0,0,0,0,0,0,0,0,0,0,0,0,0,0,0,0,0,0,0,0,0,0,0,0,0,0,0,0,0,0,0,0,0,0,0,0,0.0137,0.0137,0,0.0138,0.0138,0.0138,0.0123,0.0123,0.0123,0.0123,0.0097,0.0097,0.0097,0,0,0,0,0,0,0,0,0,0,0,0,0,0.0119,0.0119,0.0137,0.0137,0.0137,0.0138,0.0138,0.0138,0.0124,0.0123,0.0123,0.0122,0.0098,0.0097,0.0097,0,0,0,0,0,0,0,0,0,0,0,0,0,0.0123,0.0119,0.0137,0.0131,0.0131,0.0138,0.0138,0.0138,0.0124,0.0123,0.0123,0.0122,0.0098,0.0097,0.0097,0.0102,0,0,0.0095,0.0095,0,0,0,0,0,0,0,0,0.0123,0.0124,0.0132,0.0132,0.0131,0.0131,0.0122,0.0125,0.0124,0.0125,0.0123,0.0122,0.0107,0.0106,0.0106,0.0101,0.01,0.0095,0.0094,0.0094,0.0094,0,0,0,0,0,0,0,0.0122,0.0123,0.0137,0.0132,0.0132,0.0127,0.0127,0.0123,0.0118,0.0125,0.0124,0.0126,0.0107,0.0107,0.0105,0.01,0.0095,0.0094,0.0094,0.0094,0.0091,0.0091,0,0,0,0,0,0,0.0125,0.0123,0.0137,0.0137,0.0127,0.0127,0.0127,0.0131,0.0118,0.0116,0.0126,0.0125,0.0108,0.0106,0.0104,0.0113,0.0094,0.0094,0.0093,0.009,0.0091,0.0091,0,0,0,0,0,0,0.0125,0.0126,0.0137,0.013,0.0132,0.0128,0.0132,0.0131,0.0128,0.012,0.0117,0.0124,0.0107,0.0105,0.0102,0.0111,0.0093,0.0093,0.009,0.009,0.0091,0.0127,0,0,0,0,0,0,0.0124,0.0126,0.0127,0.0131,0.0132,0.0146,0.0133,0.0131,0.013,0.0129,0.0117,0.0114,0.0107,0.0103,0.0101,0.011,0.0092,0.009,0.009,0.0091,0.0126,0.0129,0.0132,0,0,0,0,0,0.0124,0.0136,0.0127,0.0129,0.0134,0.0146,0.0147,0.0142,0.0131,0.0135,0.0124,0.0114,0.0104,0.0103,0.0101,0.011,0.0089,0.009,0.0091,0.0124,0.0128,0.0131,0,0,0,0,0,0,0.0139,0.0136,0.0127,0.0139,0.0141,0.0144,0.015,0.0142,0.0137,0.0135,0.0119,0.0116,0.0116,0.0107,0.0105,0.0109,0.0095,0.0095,0.0121,0.0125,0.0128,0.0145,0.0092,0,0,0,0,0,0.014,0.0138,0.0141,0.0149,0.0153,0.0148,0.015,0.0148,0.0146,0.0143,0.0134,0.0124,0.0118,0.0116,0.011,0.0115,0.0104,0.0118,0.0121,0.0123,0.0136,0.0125,0.0128,0.0093,0.0093,0.0093,0,0,0.015,0.0145,0.0146,0.015,0.0151,0.0167,0.0148,0.0159,0.017,0.0142,0.015,0.0133,0.0121,0.0125,0.0125,0.0119,0.0126,0.0124,0.0127,0.0138,0.0126,0.0129,0.0132,0.0093,0.0093,0.0093,0,0,0.0172,0.0163,0.0173,0.0175,0.0178,0.018,0.0183,0.0186,0.0185,0.0189,0.0171,0.0161,0.0153,0.0149,0.0144,0.0159,0.014,0.0153,0.0186,0.0174,0.0177,0.018,0.0166,0.0167,0.0157,0.0157,0.0157,0,0.0181,0.0194,0.0179,0.0192,0.0202,0.0188,0.0213,0.0212,0.0212,0.0218,0.0197,0.0186,0.0167,0.0178,0.018,0.0167,0.0156,0.0174,0.0179,0.0181,0.0183,0.0168,0.0169,0.0159,0.0158,0.0158,0.0158,0,0.0214,0.0223,0.0232,0.0239,0.0249,0.0268,0.027,0.0276,0.0267,0.0266,0.0268,0.0239,0.0234,0.0222,0.0204,0.0213,0.0198,0.0182,0.0172,0.0189,0.0172,0.0172,0.0161,0.0161,0.016,0.016,0,0,0.0237,0.0253,0.0254,0.0269,0.0277,0.0294,0.0314,0.0336,0.0355,0.0335,0.0356,0.0328,0.0306,0.0299,0.0271,0.0258,0.025,0.0229,0.0227,0.0219,0.0225,0.0209,0.0207,0.0234,0.0235,0.0235,0.0205,0,0.0267,0.0307,0.0303,0.0344,0.0371,0.0365,0.0389,0.0402,0.0402,0.0416,0.0385,0.0389,0.0338,0.0333,0.0311,0.0271,0.0253,0.026,0.0206,0.0205,0.0192,0.0208,0.0213,0.0187,0.0205,0.0205,0.0205,0,0.0303,0.0324,0.0376,0.0406,0.0418,0.0435,0.0475,0.0496,0.0508,0.0506,0.0497,0.047,0.0451,0.04,0.034,0.0347,0.0291,0.0252,0.025,0.0226,0.019,0.0173,0.0186,0.0204,0.0204,0.0204,0.0205,0,0.0337,0.0373,0.0418,0.0429,0.0464,0.0482,0.0501,0.0524,0.0558,0.0566,0.0586,0.0546,0.0537,0.0465,0.0374,0.0359,0.0306,0.0274,0.0207,0.0205,0.0196,0.0193,0.0232,0.0232,0.0232,0.0232,0.0232,0,0.0373,0.0404,0.0436,0.0459,0.0518,0.0524,0.0577,0.0594,0.0626,0.0681,0.0634,0.0659,0.0553,0.0506,0.0408,0.0313,0.0329,0.0222,0.0201,0.0208,0.0206,0.0211,0.0209,0.0231,0.0231,0.0232,0.0232,0,0.0404,0.0425,0.0476,0.0517,0.0537,0.0579,0.0631,0.0674,0.0694,0.0764,0.0773,0.0752,0.0693,0.058,0.0469,0.0369,0.0273,0.0231,0.0245,0.0226,0.0168,0.0168,0.0157,0.0157,0.0156,0.0156,0.0155,0,0.0425,0.0458,0.0521,0.0564,0.0581,0.0637,0.0686,0.0714,0.0767,0.0826,0.0872,0.0836,0.0822,0.065,0.0476,0.031,0.0282,0.0197,0.0167,0.0182,0.0163,0.0164,0.0165,0.0164,0.0164,0.0163,0.0163,0,0.0466,0.0486,0.0527,0.0614,0.0669,0.0741,0.0806,0.0855,0.0908,0.0962,0.1023,0.1015,0.0861,0.0697,0.0467,0.0348,0.0222,0.0186,0.0209,0.0183,0.0186,0.0167,0.0169,0.0161,0.0161,0.0161,0.0161,0.0162,0.0493,0.053,0.0587,0.0665,0.0741,0.0835,0.0892,0.096,0.1049,0.1122,0.1118,0.1092,0.0918,0.0615,0.0427,0.0213,0.0223,0.0131,0.0133,0.0135,0.0142,0.0144,0.0112,0.0112,0.0112,0.0112,0.0112,0,0.0534,0.0572,0.0641,0.0733,0.0813,0.0852,0.0974,0.1026,0.1123,0.1167,0.1197,0.1014,0.0839,0.063,0.0322,0.0146,0.0127,0.0078,0.0096,0.01,0.0103,0.0109,0.007,0.0069,0.0068,0.0068,0,0,0.0559,0.0622,0.0649,0.0772,0.0843,0.0952,0.1022,0.1105,0.1156,0.1184,0.1154,0.1116,0.0883,0.065,0.042,0.0244,0.0207,0.0201,0.0253,0.0306,0.0311,0.015,0.0166,0,0,0,0,0]}],[{"header":{"parameterUnit":"m.s-1","parameterCategory":2,"la1":30.2991,"la2":30.254,"lo1":-89.0895,"lo2":-89.0444,"dy":0.0017,"dx":0.0017,"nx":28,"ny":28,"refTime":"2024-03-16T21:00:00:Z","depth":"4","parameterNumber":2,"parameterNumberName":"U-component_of_CURRENTS"},"data":[0,0,0,0,0,0,0,0,0,0,0,0,0,0,0,0,0,0,0,0,0,0,0,0,0,0,0,0,0,0,0,0,0,0,0,0,0,0,0,0,0,0,0,0,0,0,0,0,0,0,0,0,0,0,0,0,0,0,0.0951,0.0951,0,0.0987,0.0987,0.0987,0.1026,0.1027,0.1028,0.1028,0.1088,0.1088,0.1089,0,0,0,0,0,0,0,0,0,0,0,0,0,0.0916,0.0916,0.0951,0.0951,0.0952,0.0987,0.0987,0.0987,0.1026,0.1027,0.1028,0.1028,0.1087,0.1088,0.109,0,0,0,0,0,0,0,0,0,0,0,0,0,0.0938,0.0916,0.0951,0.0976,0.0978,0.0987,0.0987,0.0988,0.1026,0.1027,0.1028,0.1029,0.1087,0.1088,0.109,0.108,0,0,0.1094,0.1095,0,0,0,0,0,0,0,0,0.0937,0.094,0.0971,0.0974,0.0977,0.1004,0.0997,0.102,0.1026,0.1007,0.1028,0.1029,0.1061,0.1065,0.1068,0.1083,0.1086,0.1094,0.1095,0.1096,0.1096,0,0,0,0,0,0,0,0.0936,0.0938,0.0964,0.0972,0.0975,0.0985,0.099,0.1001,0.1029,0.1009,0.1012,0.1017,0.1063,0.1067,0.107,0.1087,0.1094,0.1096,0.1097,0.1097,0.1162,0.1163,0,0,0,0,0,0,0.0931,0.0937,0.0963,0.0965,0.096,0.0985,0.099,0.0994,0.1028,0.1034,0.1016,0.1019,0.1064,0.1068,0.1072,0.1129,0.1096,0.1097,0.1098,0.1161,0.1162,0.1163,0,0,0,0,0,0,0.093,0.0933,0.0962,0.0953,0.0957,0.0985,0.0989,0.0994,0.1025,0.1033,0.104,0.1045,0.1065,0.107,0.1108,0.1129,0.1098,0.1099,0.116,0.1162,0.1163,0.12,0,0,0,0,0,0,0.0929,0.0933,0.0942,0.0952,0.0957,0.0983,0.0988,0.0994,0.1025,0.103,0.106,0.1065,0.1066,0.1106,0.1109,0.1131,0.1101,0.1159,0.1161,0.1162,0.1198,0.1203,0.1207,0,0,0,0,0,0.0928,0.0931,0.0943,0.0946,0.0967,0.0984,0.0988,0.101,0.1026,0.1041,0.1066,0.1065,0.1118,0.1108,0.1112,0.1134,0.1159,0.1161,0.1162,0.1196,0.1202,0.1207,0,0,0,0,0,0,0.0917,0.0936,0.0948,0.0957,0.0979,0.0991,0.1008,0.1024,0.1055,0.1067,0.1078,0.1085,0.1125,0.1124,0.1112,0.1157,0.1137,0.114,0.1161,0.1167,0.1171,0.1163,0.1102,0,0,0,0,0,0.0919,0.0934,0.0951,0.0963,0.0975,0.0998,0.1012,0.1028,0.1051,0.1067,0.1086,0.1107,0.113,0.1146,0.116,0.1185,0.1194,0.1201,0.1206,0.1209,0.1205,0.1244,0.1252,0.1169,0.1169,0.1169,0,0,0.0916,0.0933,0.094,0.0964,0.0984,0.1,0.101,0.1037,0.1057,0.1067,0.1107,0.1127,0.1141,0.1171,0.1189,0.1177,0.124,0.1212,0.1215,0.1209,0.1247,0.1255,0.1262,0.1171,0.117,0.117,0,0,0.0918,0.0938,0.0952,0.0971,0.1005,0.1017,0.1032,0.1058,0.108,0.1118,0.113,0.1162,0.1197,0.1206,0.1217,0.1252,0.1263,0.1263,0.1278,0.1317,0.1324,0.133,0.1361,0.137,0.1263,0.1263,0.1263,0,0.0923,0.0935,0.0959,0.0979,0.0997,0.1028,0.1046,0.1069,0.1105,0.1125,0.1138,0.1196,0.121,0.1243,0.1257,0.1262,0.1287,0.1259,0.1323,0.1329,0.1335,0.1365,0.1374,0.1265,0.1265,0.1265,0.1265,0,0.0926,0.0948,0.096,0.0996,0.1017,0.104,0.107,0.11,0.1136,0.1157,0.121,0.1231,0.1266,0.1276,0.1281,0.1326,0.1333,0.1327,0.131,0.1346,0.1375,0.1384,0.1268,0.1268,0.1267,0.1266,0,0,0.0918,0.0955,0.0965,0.0981,0.103,0.1044,0.1086,0.1125,0.116,0.12,0.1243,0.1282,0.1303,0.1315,0.1326,0.1353,0.1419,0.1362,0.1363,0.1393,0.1512,0.14,0.1399,0.1436,0.1438,0.1439,0.1519,0,0.0923,0.0949,0.0974,0.1006,0.1019,0.1063,0.11,0.1142,0.1187,0.1234,0.1268,0.1315,0.1315,0.1346,0.1374,0.1411,0.1443,0.1398,0.1471,0.1473,0.137,0.1405,0.1444,0.1526,0.1528,0.1529,0.153,0,0.092,0.0939,0.0965,0.1009,0.1023,0.1053,0.1119,0.1157,0.1227,0.1266,0.1317,0.1348,0.14,0.1395,0.1476,0.1455,0.1487,0.1508,0.1511,0.1396,0.1377,0.148,0.1546,0.1545,0.1544,0.1543,0.1542,0,0.089,0.0934,0.0954,0.0969,0.1023,0.1057,0.11,0.1171,0.1216,0.1294,0.1337,0.1396,0.1446,0.1491,0.1537,0.1525,0.1619,0.1606,0.1534,0.1527,0.1588,0.158,0.1662,0.1662,0.1662,0.1662,0.1661,0,0.0874,0.0895,0.0945,0.0955,0.0993,0.1046,0.1109,0.1158,0.1243,0.1292,0.1357,0.1398,0.1478,0.1534,0.1561,0.1571,0.1646,0.1537,0.1538,0.1603,0.1596,0.1595,0.1586,0.1665,0.1664,0.1663,0.1663,0,0.0836,0.0869,0.0893,0.0954,0.0978,0.101,0.1112,0.115,0.1245,0.1311,0.1342,0.1434,0.1501,0.156,0.1639,0.1598,0.1619,0.1606,0.1677,0.1681,0.1498,0.1491,0.1529,0.1526,0.1523,0.1521,0.1519,0,0.0813,0.0821,0.0882,0.09,0.0933,0.0996,0.1036,0.1138,0.1177,0.1314,0.1327,0.1433,0.148,0.1502,0.1569,0.1608,0.159,0.1587,0.1525,0.1487,0.1485,0.1481,0.1478,0.1514,0.1514,0.1513,0.1512,0,0.0771,0.0803,0.0825,0.0862,0.0901,0.0935,0.1001,0.1024,0.1138,0.1236,0.1283,0.1323,0.1393,0.1439,0.148,0.1502,0.1574,0.1557,0.1562,0.1504,0.1469,0.1469,0.1469,0.1502,0.1504,0.1505,0.1505,0,0.0746,0.0751,0.0788,0.0814,0.0857,0.0858,0.0901,0.0947,0.1005,0.1148,0.1163,0.1275,0.1375,0.1386,0.1424,0.1434,0.1411,0.1354,0.137,0.1382,0.1294,0.1225,0.1185,0,0,0,0,0,0.0713,0.0712,0.0733,0.0748,0.0788,0.0811,0.0867,0.0912,0.102,0.1018,0.1091,0.1148,0.1207,0.1265,0.1248,0.136,0.1415,0.1333,0.1356,0.1448,0.1459,0.1368,0,0,0,0,0,0,0.0688,0.0707,0.071,0.0693,0.0696,0.0722,0.0753,0.0817,0.0821,0.094,0.0978,0.1073,0.1148,0.1214,0.1229,0.1246,0.1234,0.1409,0.1405,0.1442,0.1452,0.1461,0.1371,0,0,0,0,0]},{"header":{"parameterUnit":"m.s-1","parameterCategory":2,"la1":30.2991,"la2":30.254,"lo1":-89.0895,"lo2":-89.0444,"dy":0.0017,"dx":0.0017,"nx":28,"ny":28,"refTime":"2024-03-16T21:00:00:Z","depth":"4","parameterNumber":3,"parameterNumberName":"V-component_of_CURRENTS"},"data":[0,0,0,0,0,0,0,0,0,0,0,0,0,0,0,0,0,0,0,0,0,0,0,0,0,0,0,0,0,0,0,0,0,0,0,0,0,0,0,0,0,0,0,0,0,0,0,0,0,0,0,0,0,0,0,0,0,0,0.018,0.018,0,0.0175,0.0175,0.0175,0.0169,0.0169,0.0169,0.0169,0.0163,0.0163,0.0163,0,0,0,0,0,0,0,0,0,0,0,0,0,0.0169,0.0169,0.018,0.018,0.018,0.0175,0.0175,0.0175,0.0169,0.0169,0.0169,0.0169,0.0163,0.0163,0.0163,0,0,0,0,0,0,0,0,0,0,0,0,0,0.017,0.0169,0.018,0.0176,0.0175,0.0175,0.0175,0.0175,0.0169,0.0169,0.0169,0.0168,0.0163,0.0163,0.0163,0.0166,0,0,0.0163,0.0163,0,0,0,0,0,0,0,0,0.017,0.0171,0.0177,0.0176,0.0176,0.0172,0.0169,0.0172,0.0169,0.0172,0.0169,0.0168,0.0166,0.0166,0.0165,0.0166,0.0166,0.0163,0.0163,0.0163,0.0163,0,0,0,0,0,0,0,0.017,0.0171,0.0178,0.0176,0.0176,0.0169,0.017,0.017,0.017,0.0171,0.0171,0.017,0.0166,0.0166,0.0165,0.0166,0.0163,0.0163,0.0163,0.0163,0.0169,0.0169,0,0,0,0,0,0,0.0171,0.0171,0.0178,0.0178,0.0172,0.017,0.017,0.0174,0.017,0.0169,0.017,0.017,0.0166,0.0165,0.0165,0.0179,0.0163,0.0163,0.0162,0.0169,0.0169,0.0169,0,0,0,0,0,0,0.0171,0.0172,0.0178,0.0174,0.0174,0.017,0.0174,0.0174,0.0176,0.0169,0.0168,0.0173,0.0166,0.0165,0.0168,0.0178,0.0163,0.0162,0.0169,0.0169,0.0169,0.02,0,0,0,0,0,0,0.0171,0.0172,0.0176,0.0174,0.0174,0.0184,0.0175,0.0174,0.0175,0.0175,0.0171,0.017,0.0165,0.0168,0.0168,0.0178,0.0162,0.0168,0.0169,0.0169,0.0199,0.0201,0.0203,0,0,0,0,0,0.0171,0.0182,0.0176,0.0177,0.0179,0.0184,0.0184,0.0181,0.0176,0.0181,0.0176,0.0171,0.0171,0.0169,0.0168,0.0178,0.0168,0.0169,0.0169,0.0198,0.0201,0.0203,0,0,0,0,0,0,0.0183,0.0182,0.0176,0.0187,0.0186,0.0183,0.0188,0.0184,0.0184,0.0184,0.0175,0.0174,0.0179,0.0174,0.0172,0.018,0.0168,0.0168,0.019,0.0192,0.0195,0.0206,0.0162,0,0,0,0,0,0.0186,0.0191,0.0188,0.0196,0.0197,0.0191,0.0193,0.0191,0.019,0.019,0.0186,0.0182,0.0181,0.0183,0.0179,0.0187,0.0174,0.0192,0.0194,0.0196,0.0205,0.0189,0.019,0.0171,0.0171,0.0171,0,0,0.0194,0.0192,0.0197,0.0199,0.0197,0.0206,0.0192,0.0199,0.0209,0.019,0.0202,0.019,0.0183,0.019,0.0192,0.0188,0.0193,0.0197,0.0199,0.0206,0.0189,0.0191,0.0193,0.0171,0.0171,0.0171,0,0,0.0213,0.0211,0.0221,0.0221,0.022,0.022,0.0223,0.0222,0.0224,0.0232,0.0218,0.0213,0.0214,0.021,0.0209,0.0223,0.0204,0.0219,0.0246,0.023,0.0232,0.0233,0.0213,0.0212,0.0224,0.0224,0.0224,0,0.022,0.0234,0.0225,0.0233,0.024,0.0228,0.0245,0.0246,0.0246,0.0252,0.0241,0.0235,0.0226,0.0234,0.0237,0.0229,0.0215,0.0236,0.0234,0.0235,0.0235,0.0214,0.0213,0.0225,0.0225,0.0225,0.0225,0,0.0245,0.0256,0.0263,0.027,0.0276,0.029,0.029,0.0296,0.0294,0.0292,0.0296,0.0278,0.0276,0.0269,0.0259,0.0262,0.0247,0.0236,0.0228,0.0239,0.0216,0.0214,0.0228,0.0227,0.0227,0.0226,0,0,0.0262,0.0278,0.0281,0.0294,0.0299,0.0311,0.0328,0.0342,0.0358,0.0346,0.036,0.0347,0.0331,0.0327,0.0307,0.0293,0.028,0.0271,0.0269,0.0254,0.0241,0.0217,0.0213,0.0267,0.0267,0.0267,0.0221,0,0.0284,0.0314,0.0316,0.0349,0.0367,0.0365,0.0385,0.0394,0.0396,0.0405,0.0382,0.0385,0.0355,0.0353,0.0334,0.0296,0.0277,0.0293,0.023,0.0229,0.0208,0.0211,0.0267,0.0219,0.0219,0.0219,0.0218,0,0.0306,0.0326,0.0366,0.0396,0.0404,0.0422,0.0453,0.0471,0.0475,0.0475,0.0466,0.0443,0.0425,0.0393,0.0336,0.0347,0.03,0.0264,0.0261,0.023,0.0202,0.0206,0.0215,0.0215,0.0215,0.0216,0.0216,0,0.0326,0.036,0.0399,0.0408,0.0439,0.046,0.0478,0.0494,0.0519,0.0519,0.0529,0.0495,0.0484,0.0423,0.0346,0.0343,0.0274,0.0259,0.0191,0.0189,0.021,0.0209,0.0216,0.0216,0.0216,0.0216,0.0216,0,0.0348,0.0377,0.0414,0.0433,0.0485,0.0492,0.0542,0.0553,0.0574,0.0605,0.0568,0.0571,0.0491,0.0439,0.0362,0.0272,0.0285,0.0198,0.0177,0.0223,0.0224,0.0208,0.0208,0.0215,0.0215,0.0215,0.0216,0,0.0362,0.0386,0.043,0.0473,0.0497,0.0532,0.0589,0.0621,0.0634,0.067,0.0672,0.0635,0.0566,0.0474,0.0373,0.0299,0.0209,0.0171,0.0226,0.0209,0.013,0.0131,0.0097,0.0095,0.0094,0.0094,0.0093,0,0.037,0.0397,0.0462,0.0496,0.0519,0.0577,0.062,0.0654,0.0684,0.0705,0.0718,0.0669,0.0628,0.0469,0.0366,0.0216,0.0188,0.0135,0.0132,0.0135,0.0118,0.0122,0.0125,0.0091,0.0091,0.0091,0.009,0,0.0385,0.0411,0.0449,0.0521,0.0575,0.0639,0.0694,0.072,0.0757,0.0771,0.0752,0.0672,0.0593,0.0467,0.0348,0.0239,0.0167,0.0124,0.0126,0.0122,0.0128,0.0113,0.0118,0.0087,0.0088,0.0088,0.0088,0,0.0396,0.0424,0.0478,0.054,0.0612,0.0676,0.0706,0.0738,0.0773,0.0784,0.0776,0.0691,0.0645,0.0478,0.037,0.0259,0.0227,0.0179,0.0177,0.0179,0.0212,0.0231,0.0208,0,0,0,0,0,0.0405,0.0438,0.0492,0.0561,0.0629,0.0675,0.0747,0.0769,0.0801,0.0791,0.0784,0.0706,0.0549,0.0484,0.0369,0.0345,0.0205,0.0204,0.0147,0.0068,0.0072,0.0093,0,0,0,0,0,0,0.0409,0.0462,0.049,0.057,0.0614,0.0697,0.0745,0.0768,0.0757,0.0767,0.0688,0.0657,0.0508,0.0612,0.036,0.0329,0.0271,0.0138,0.0134,0.0066,0.0069,0.0073,0.0095,0,0,0,0,0]}]]